^^
Station Historical Data
Daily Summary for February 1, 2018 Units:  Metric    English   Both
« Previous Day
Next Day »
Daily Weekly Monthly Yearly Custom
  High: Low: Average:
Temperature: -17.8 °C -19 °C -18.5 °C
Dew Point: -17.8 °C -19.6 °C -18.9 °C
Humidity: Humidity% 93% 94%
Wind Speed: 0km/h 0km/h 9.8km/h
Wind Gust: 0km/h - -
Wind- - ESE
Pressure: 0 hPa 33683.9 hPa -
Precipitation: 1089.66 mm    
Historical Graphs
 
 
Tabular Data for February 1, 2018
Time Temperature Dew Point Pressure Wind Wind Speed Wind Gust Humidity Rainfall Rate (Hourly) solar Conditions
-17.8 °C -17.8 °C 0 hPa Calm     Humidity% 0 mm SoftwareType W/m2 Conditions
00:04 -19 °C -19.6 °C 33992.1 hPa ESE 10.6 km/h 20.9 km/h 93% 0 mm WeatherDisplay:10.37 W/m2 FEW
00:09 -19 °C -19.6 °C 33992.1 hPa East 7.6 km/h 26.9 km/h 93% 0 mm WeatherDisplay:10.37 W/m2 FEW
00:14 -19 °C -19.6 °C 33992.1 hPa East 7.6 km/h 9 km/h 93% 0 mm WeatherDisplay:10.37 W/m2 FEW
00:19 -19 °C -19.6 °C 33981.9 hPa East 11.1 km/h 23.8 km/h 93% 0 mm WeatherDisplay:10.37 W/m2 FEW
00:24 -19 °C -19.6 °C 33981.9 hPa SE 8.5 km/h 17.9 km/h 93% 0 mm WeatherDisplay:10.37 W/m2 FEW
00:29 -19 °C -19.6 °C 33981.9 hPa ESE 6.3 km/h 15 km/h 93% 0 mm WeatherDisplay:10.37 W/m2 FEW
00:34 -19 °C -19.6 °C 33981.9 hPa ESE 7.6 km/h 23.8 km/h 93% 0 mm WeatherDisplay:10.37 W/m2 FEW
00:39 -18.9 °C -19.5 °C 33971.7 hPa East 4.7 km/h 20.9 km/h 93% 0 mm WeatherDisplay:10.37 W/m2 FEW
00:44 -18.9 °C -19.5 °C 33971.7 hPa ESE 8 km/h 10.3 km/h 93% 0 mm WeatherDisplay:10.37 W/m2 FEW
00:49 -18.9 °C -19.5 °C 33971.7 hPa SE 6.3 km/h 12.9 km/h 93% 0 mm WeatherDisplay:10.37 W/m2 FEW
00:54 -18.9 °C -19.5 °C 33971.7 hPa SE 15 km/h 23.8 km/h 93% 0 mm WeatherDisplay:10.37 W/m2 FEW
00:59 -18.9 °C -19.5 °C 33971.7 hPa East 6.9 km/h 15 km/h 93% 0 mm WeatherDisplay:10.37 W/m2 FEW
01:04 -18.9 °C -19.5 °C 33958.2 hPa SE 7.2 km/h 12.9 km/h 93% 0 mm WeatherDisplay:10.37 W/m2 FEW
01:09 -18.9 °C -19.5 °C 33958.2 hPa SSE 11.4 km/h 12.9 km/h 93% 0 mm WeatherDisplay:10.37 W/m2 FEW
01:14 -18.9 °C -19.5 °C 33958.2 hPa SSW 7.6 km/h 20.9 km/h 93% 0 mm WeatherDisplay:10.37 W/m2 FEW
01:19 -18.9 °C -19.5 °C 33958.2 hPa ENE 6.4 km/h 20.9 km/h 93% 7.62 mm WeatherDisplay:10.37 W/m2 RA
01:24 -18.9 °C -19.5 °C 33958.2 hPa SE 13.5 km/h 20.9 km/h 93% 7.62 mm WeatherDisplay:10.37 W/m2 RA
01:29 -18.9 °C -19.5 °C 33958.2 hPa ESE 15.3 km/h 35.7 km/h 93% 7.62 mm WeatherDisplay:10.37 W/m2 FEW
01:34 -18.9 °C -19.5 °C 33958.2 hPa ENE 10.9 km/h 15.6 km/h 93% 7.62 mm WeatherDisplay:10.37 W/m2 FEW
01:39 -18.9 °C -19.4 °C 33958.2 hPa East 10.9 km/h 20.8 km/h 94% 12.7 mm WeatherDisplay:10.37 W/m2 RA
01:44 -18.9 °C -19.4 °C 33948 hPa ESE 5.5 km/h 17.9 km/h 94% 12.7 mm WeatherDisplay:10.37 W/m2 RA
01:49 -19 °C -19.4 °C 33948 hPa SE 10.1 km/h 29.8 km/h 94% 12.7 mm WeatherDisplay:10.37 W/m2 RA
01:54 -19 °C -19.4 °C 33948 hPa SE 10.1 km/h 29.8 km/h 94% 12.7 mm WeatherDisplay:10.37 W/m2 RA
01:59 -19 °C -19.4 °C 33948 hPa SE 11.1 km/h 28.5 km/h 94% 12.7 mm WeatherDisplay:10.37 W/m2 FEW
02:04 -19 °C -19.4 °C 33948 hPa SE 7.2 km/h 32.8 km/h 94% 20.32 mm WeatherDisplay:10.37 W/m2 RA
02:09 -19 °C -19.4 °C 33948 hPa NE 13.2 km/h 28.5 km/h 94% 20.32 mm WeatherDisplay:10.37 W/m2 RA
02:14 -19 °C -19.4 °C 33937.9 hPa ESE 10.3 km/h 15 km/h 94% 20.32 mm WeatherDisplay:10.37 W/m2 FEW
02:19 -18.9 °C -19.4 °C 33937.9 hPa East 12.9 km/h 17.9 km/h 94% 12.7 mm WeatherDisplay:10.37 W/m2 FEW
02:24 -18.9 °C -19.4 °C 33937.9 hPa East 14.8 km/h 28.5 km/h 94% 20.32 mm WeatherDisplay:10.37 W/m2 RA
02:29 -18.9 °C -19.4 °C 33937.9 hPa SE 6.3 km/h 26.9 km/h 94% 20.32 mm WeatherDisplay:10.37 W/m2 RA
02:34 -18.9 °C -19.4 °C 33937.9 hPa SE 21.2 km/h 32.8 km/h 94% 20.32 mm WeatherDisplay:10.37 W/m2 FEW
02:39 -18.9 °C -19.4 °C 33924.3 hPa SE 6.8 km/h 17.9 km/h 94% 12.7 mm WeatherDisplay:10.37 W/m2 FEW
02:44 -18.9 °C -19.4 °C 33914.2 hPa East 9.8 km/h 29.8 km/h 94% 20.32 mm WeatherDisplay:10.37 W/m2 RA
02:49 -18.9 °C -19.4 °C 33914.2 hPa East 16.1 km/h 26.9 km/h 94% 12.7 mm WeatherDisplay:10.37 W/m2 RA
02:54 -18.9 °C -19.3 °C 33914.2 hPa East 15.3 km/h 26.9 km/h 94% 12.7 mm WeatherDisplay:10.37 W/m2 FEW
02:59 -18.9 °C -19.3 °C 33914.2 hPa ESE 11.9 km/h 20.9 km/h 94% 12.7 mm WeatherDisplay:10.37 W/m2 FEW
03:04 -18.9 °C -19.3 °C 33914.2 hPa ESE 10.1 km/h 23.8 km/h 94% 12.7 mm WeatherDisplay:10.37 W/m2 RA
03:09 -18.9 °C -19.3 °C 33900.6 hPa SE 14.8 km/h 29.8 km/h 94% 12.7 mm WeatherDisplay:10.37 W/m2 RA
03:14 -18.8 °C -19.3 °C 33900.6 hPa SSE 10.3 km/h 29.8 km/h 94% 12.7 mm WeatherDisplay:10.37 W/m2 FEW
03:19 -18.8 °C -19.3 °C 33900.6 hPa SE 7.7 km/h 17.9 km/h 94% 20.32 mm WeatherDisplay:10.37 W/m2 RA
03:24 -18.8 °C -19.3 °C 33890.5 hPa East 11.1 km/h 11.9 km/h 94% 12.7 mm WeatherDisplay:10.37 W/m2 RA
03:29 -18.8 °C -19.3 °C 33890.5 hPa East 14.5 km/h 20.9 km/h 94% 20.32 mm WeatherDisplay:10.37 W/m2 RA
03:34 -18.8 °C -19.3 °C 33890.5 hPa ESE 12.9 km/h 20.9 km/h 94% 20.32 mm WeatherDisplay:10.37 W/m2 RA
03:39 -18.8 °C -19.3 °C 33890.5 hPa East 12.4 km/h 23.8 km/h 94% 25.4 mm WeatherDisplay:10.37 W/m2 RA
03:44 -18.8 °C -19.3 °C 33880.3 hPa East 10.6 km/h 17.9 km/h 94% 20.32 mm WeatherDisplay:10.37 W/m2 RA
03:49 -18.8 °C -19.3 °C 33880.3 hPa ESE 19.2 km/h 35.7 km/h 94% 25.4 mm WeatherDisplay:10.37 W/m2 RA
03:54 -18.8 °C -19.3 °C 33880.3 hPa ESE 10.9 km/h 20.9 km/h 94% 25.4 mm WeatherDisplay:10.37 W/m2 RA
03:59 -18.8 °C -19.3 °C 33880.3 hPa ESE 22.5 km/h 28.5 km/h 94% 33.02 mm WeatherDisplay:10.37 W/m2 RA
04:04 -18.8 °C -19.2 °C 33880.3 hPa ESE 9.3 km/h 26.9 km/h 94% 33.02 mm WeatherDisplay:10.37 W/m2 RA
04:09 -18.8 °C -19.2 °C 33880.3 hPa East 2.9 km/h 29.8 km/h 94% 33.02 mm WeatherDisplay:10.37 W/m2 RA
04:14 -18.8 °C -19.2 °C 33880.3 hPa ENE 7.2 km/h 9 km/h 94% 38.1 mm WeatherDisplay:10.37 W/m2 RA
04:19 -18.8 °C -19.2 °C 33866.8 hPa ENE 20.9 km/h 29.8 km/h 94% 38.1 mm WeatherDisplay:10.37 W/m2 RA
04:24 -18.8 °C -19.2 °C 33866.8 hPa SE 14 km/h 23.8 km/h 94% 38.1 mm WeatherDisplay:10.37 W/m2 RA
04:29 -18.7 °C -19.2 °C 33856.6 hPa NE 12.2 km/h 32.8 km/h 94% 38.1 mm WeatherDisplay:10.37 W/m2 RA
04:34 -18.7 °C -19.2 °C 33856.6 hPa ESE 12.2 km/h 15.6 km/h 94% 38.1 mm WeatherDisplay:10.37 W/m2 RA
04:39 -18.7 °C -19.2 °C 33856.6 hPa SSE 16.9 km/h 35.7 km/h 94% 38.1 mm WeatherDisplay:10.37 W/m2 RA
04:44 -18.7 °C -19.2 °C 33856.6 hPa East 22.9 km/h 35.7 km/h 94% 45.72 mm WeatherDisplay:10.37 W/m2 RA
04:49 -18.7 °C -19.2 °C 33856.6 hPa East 15 km/h 32.8 km/h 94% 38.1 mm WeatherDisplay:10.37 W/m2 RA
04:54 -18.7 °C -19.2 °C 33843.1 hPa East 13.2 km/h 32.8 km/h 94% 45.72 mm WeatherDisplay:10.37 W/m2 RA
04:59 -18.7 °C -19.2 °C 33856.6 hPa East 25.6 km/h 44.7 km/h 94% 38.1 mm WeatherDisplay:10.37 W/m2 RA
05:04 -18.7 °C -19.2 °C 33843.1 hPa SE 26.2 km/h 38.8 km/h 94% 38.1 mm WeatherDisplay:10.37 W/m2 RA
05:09 -18.7 °C -19.2 °C 33843.1 hPa ENE 16.9 km/h 26.9 km/h 94% 38.1 mm WeatherDisplay:10.37 W/m2 RA
05:14 -18.7 °C -19.2 °C 33832.9 hPa ESE 6.9 km/h 31.1 km/h 94% 38.1 mm WeatherDisplay:10.37 W/m2 FEW
05:19 -18.7 °C -19.2 °C 33832.9 hPa ENE 17.4 km/h 35.7 km/h 94% 33.02 mm WeatherDisplay:10.37 W/m2 FEW
05:24 -18.7 °C -19.2 °C 33832.9 hPa ESE 19.2 km/h 29.8 km/h 94% 33.02 mm WeatherDisplay:10.37 W/m2 FEW
05:29 -18.7 °C -19.2 °C 33832.9 hPa East 23.3 km/h 26.9 km/h 94% 25.4 mm WeatherDisplay:10.37 W/m2 FEW
05:34 -18.7 °C -19.2 °C 33832.9 hPa NNE 17.9 km/h 20.8 km/h 94% 25.4 mm WeatherDisplay:10.37 W/m2 RA
05:39 -18.7 °C -19.2 °C 33822.8 hPa East 11.4 km/h 29.8 km/h 94% 33.02 mm WeatherDisplay:10.37 W/m2 RA
05:44 -18.7 °C -19.2 °C 33822.8 hPa ESE 3.1 km/h 29.8 km/h 94% 33.02 mm WeatherDisplay:10.37 W/m2 RA
05:49 -18.7 °C -19.2 °C 33822.8 hPa SE 10.1 km/h 17.9 km/h 94% 38.1 mm WeatherDisplay:10.37 W/m2 RA
05:54 -18.7 °C -19.2 °C 33822.8 hPa East 26.4 km/h 38.8 km/h 94% 38.1 mm WeatherDisplay:10.37 W/m2 RA
05:59 -18.7 °C -19.2 °C 33822.8 hPa ESE 3.7 km/h 41.7 km/h 94% 45.72 mm WeatherDisplay:10.37 W/m2 RA
06:04 -18.7 °C -19.2 °C 33822.8 hPa NE 15 km/h 38.8 km/h 94% 50.8 mm WeatherDisplay:10.37 W/m2 RA
06:09 -18.7 °C -19.2 °C 33822.8 hPa NE 14 km/h 41.7 km/h 94% 58.42 mm WeatherDisplay:10.37 W/m2 RA
06:14 -18.7 °C -19.2 °C 33822.8 hPa East 17.5 km/h 50.7 km/h 94% 58.42 mm WeatherDisplay:10.37 W/m2 RA
06:19 -18.7 °C -19.2 °C 33822.8 hPa SSE 16.3 km/h 28.5 km/h 94% 63.5 mm WeatherDisplay:10.37 W/m2 RA
06:24 -18.8 °C -19.2 °C 33809.2 hPa SE 17.1 km/h 41.7 km/h 94% 71.12 mm WeatherDisplay:10.37 W/m2 RA
06:29 -18.8 °C -19.2 °C 33822.8 hPa ENE 19.5 km/h 26.9 km/h 94% 76.2 mm WeatherDisplay:10.37 W/m2 RA
06:34 -18.8 °C -19.2 °C 33809.2 hPa East 20.3 km/h 33.6 km/h 94% 76.2 mm WeatherDisplay:10.37 W/m2 RA
06:39 -18.8 °C -19.2 °C 33809.2 hPa ESE 16.3 km/h 28.5 km/h 94% 63.5 mm WeatherDisplay:10.37 W/m2 RA
06:45 -18.8 °C -19.3 °C 33809.2 hPa SSE 12.9 km/h 23.8 km/h 94% 63.5 mm WeatherDisplay:10.37 W/m2 RA
06:50 -18.8 °C -19.3 °C 33809.2 hPa ESE 21.2 km/h 41.7 km/h 94% 58.42 mm WeatherDisplay:10.37 W/m2 RA
06:55 -18.8 °C -19.3 °C 33809.2 hPa SE 21.2 km/h 38.8 km/h 94% 58.42 mm WeatherDisplay:10.37 W/m2 RA
07:00 -18.8 °C -19.3 °C 33799.1 hPa SE 15.6 km/h 29.8 km/h 94% 58.42 mm WeatherDisplay:10.37 W/m2 RA
07:05 -18.8 °C -19.3 °C 33799.1 hPa SE 20.4 km/h 32.8 km/h 94% 58.42 mm WeatherDisplay:10.37 W/m2 RA
07:10 -18.8 °C -19.3 °C 33799.1 hPa ENE 11.1 km/h 29.8 km/h 94% 58.42 mm WeatherDisplay:10.37 W/m2 RA
07:15 -18.8 °C -19.3 °C 33799.1 hPa ENE 19.2 km/h 41.7 km/h 94% 63.5 mm WeatherDisplay:10.37 W/m2 RA
07:20 -18.8 °C -19.3 °C 33799.1 hPa SE 20.9 km/h 29.8 km/h 94% 63.5 mm WeatherDisplay:10.37 W/m2 RA
07:25 -18.8 °C -19.3 °C 33799.1 hPa SE 18.7 km/h 35.7 km/h 94% 63.5 mm WeatherDisplay:10.37 W/m2 RA
07:30 -18.9 °C -19.3 °C 33799.1 hPa East 23.3 km/h 41.7 km/h 94% 63.5 mm WeatherDisplay:10.37 W/m2 RA
07:35 -18.9 °C -19.3 °C 33799.1 hPa NE 11.1 km/h 41.7 km/h 94% 63.5 mm WeatherDisplay:10.37 W/m2 RA
07:40 -18.9 °C -19.3 °C 33799.1 hPa ESE 9.3 km/h 35.7 km/h 94% 71.12 mm WeatherDisplay:10.37 W/m2 RA
07:45 -18.9 °C -19.3 °C 33788.9 hPa ENE 17.4 km/h 32.8 km/h 94% 76.2 mm WeatherDisplay:10.37 W/m2 RA
07:50 -18.9 °C -19.3 °C 33788.9 hPa SE 17.9 km/h 23.8 km/h 94% 76.2 mm WeatherDisplay:10.37 W/m2 RA
07:55 -18.9 °C -19.3 °C 33788.9 hPa SE 15.3 km/h 29.8 km/h 94% 83.82 mm WeatherDisplay:10.37 W/m2 RA
08:00 -18.9 °C -19.3 °C 33788.9 hPa ESE 15.8 km/h 23.8 km/h 94% 83.82 mm WeatherDisplay:10.37 W/m2 RA
08:06 -18.9 °C -19.3 °C 33788.9 hPa ENE 21.7 km/h 44.7 km/h 94% 76.2 mm WeatherDisplay:10.37 W/m2 RA
08:11 -18.8 °C -19.3 °C 33775.4 hPa ESE 10.1 km/h 29.8 km/h 94% 71.12 mm WeatherDisplay:10.37 W/m2 RA
08:16 -18.9 °C -19.3 °C 33775.4 hPa ESE 11.4 km/h 29.8 km/h 94% 71.12 mm WeatherDisplay:10.37 W/m2 RA
08:21 -18.8 °C -19.3 °C 33775.4 hPa ENE 13.2 km/h 29.8 km/h 94% 76.2 mm WeatherDisplay:10.37 W/m2 RA
08:26 -18.9 °C -19.3 °C 33765.2 hPa ENE 18.8 km/h 35.7 km/h 94% 76.2 mm WeatherDisplay:10.37 W/m2 RA
08:31 -18.9 °C -19.3 °C 33765.2 hPa ENE 12.9 km/h 35.7 km/h 94% 83.82 mm WeatherDisplay:10.37 W/m2 RA
08:36 -18.8 °C -19.3 °C 33765.2 hPa East 18.2 km/h 35.7 km/h 94% 83.82 mm WeatherDisplay:10.37 W/m2 RA
08:42 -18.8 °C -19.3 °C 33765.2 hPa NE 18.8 km/h 35.7 km/h 94% 83.82 mm WeatherDisplay:10.37 W/m2 RA
08:47 -18.8 °C -19.3 °C 33765.2 hPa ENE 19.2 km/h 32.8 km/h 94% 83.82 mm WeatherDisplay:10.37 W/m2 RA
08:52 -18.8 °C -19.3 °C 33765.2 hPa East 14 km/h 29.8 km/h 94% 76.2 mm WeatherDisplay:10.37 W/m2 RA
08:57 -18.8 °C -19.3 °C 33765.2 hPa ENE 24.8 km/h 50.7 km/h 94% 76.2 mm WeatherDisplay:10.37 W/m2 RA
09:02 -18.8 °C -19.3 °C 33765.2 hPa SE 17.1 km/h 26.9 km/h 94% 83.82 mm WeatherDisplay:10.37 W/m2 RA
09:08 -18.8 °C -19.3 °C 33751.6 hPa SE 13.2 km/h 32.8 km/h 94% 83.82 mm WeatherDisplay:10.37 W/m2 RA
09:13 -18.8 °C -19.3 °C 33751.6 hPa East 22.2 km/h 38.8 km/h 94% 76.2 mm WeatherDisplay:10.37 W/m2 RA
09:18 -18.8 °C -19.3 °C 33751.6 hPa SE 10.3 km/h 17.9 km/h 94% 76.2 mm WeatherDisplay:10.37 W/m2 RA
09:23 -18.8 °C -19.3 °C 33751.6 hPa SE 20 km/h 50.7 km/h 94% 83.82 mm WeatherDisplay:10.37 W/m2 RA
09:28 -18.8 °C -19.3 °C 33751.6 hPa ESE 21.7 km/h 21.7 km/h 94% 76.2 mm WeatherDisplay:10.37 W/m2 RA
09:33 -18.8 °C -19.3 °C 33751.6 hPa East 19.6 km/h 35.7 km/h 94% 76.2 mm WeatherDisplay:10.37 W/m2 RA
09:38 -18.8 °C -19.3 °C 33751.6 hPa ESE 16.6 km/h 29.8 km/h 94% 76.2 mm WeatherDisplay:10.37 W/m2 RA
09:43 -18.8 °C -19.3 °C 33741.5 hPa NNE 18.7 km/h 38.8 km/h 94% 76.2 mm WeatherDisplay:10.37 W/m2 RA
09:48 -18.8 °C -19.3 °C 33741.5 hPa ESE 18.7 km/h 47.6 km/h 94% 76.2 mm WeatherDisplay:10.37 W/m2 RA
09:53 -18.8 °C -19.3 °C 33741.5 hPa SE 21.6 km/h 44.7 km/h 94% 83.82 mm WeatherDisplay:10.37 W/m2 RA
09:58 -18.8 °C -19.3 °C 33741.5 hPa East 12.4 km/h 38.8 km/h 94% 83.82 mm WeatherDisplay:10.37 W/m2 RA
10:03 -18.8 °C -19.3 °C 33741.5 hPa SE 18.8 km/h 23.8 km/h 94% 76.2 mm WeatherDisplay:10.37 W/m2 RA
10:08 -18.8 °C -19.3 °C 33741.5 hPa East 11.6 km/h 29.8 km/h 94% 76.2 mm WeatherDisplay:10.37 W/m2 RA
10:13 -18.8 °C -19.3 °C 33741.5 hPa South 20 km/h 20.9 km/h 94% 71.12 mm WeatherDisplay:10.37 W/m2 RA
10:19 -18.8 °C -19.3 °C 33731.3 hPa SE 22.9 km/h 29.8 km/h 94% 63.5 mm WeatherDisplay:10.37 W/m2 RA
10:24 -18.8 °C -19.2 °C 33741.5 hPa ENE 11.9 km/h 26.9 km/h 94% 71.12 mm WeatherDisplay:10.37 W/m2 RA
10:29 -18.8 °C -19.2 °C 33731.3 hPa East 18.3 km/h 32.8 km/h 94% 76.2 mm WeatherDisplay:10.37 W/m2 RA
10:34 -18.8 °C -19.2 °C 33731.3 hPa South 17.9 km/h 32.8 km/h 94% 83.82 mm WeatherDisplay:10.37 W/m2 RA
10:39 -18.8 °C -19.2 °C 33731.3 hPa SE 19.5 km/h 35.7 km/h 94% 76.2 mm WeatherDisplay:10.37 W/m2 RA
10:44 -18.7 °C -19.2 °C 33731.3 hPa ESE 19.5 km/h 29.8 km/h 94% 83.82 mm WeatherDisplay:10.37 W/m2 RA
10:49 -18.7 °C -19.2 °C 33731.3 hPa East 13.2 km/h 31.1 km/h 94% 76.2 mm WeatherDisplay:10.37 W/m2 RA
10:54 -18.7 °C -19.2 °C 33731.3 hPa NE 16.3 km/h 25.9 km/h 94% 83.82 mm WeatherDisplay:10.37 W/m2 RA
10:59 -18.7 °C -19.2 °C 33731.3 hPa East 12.2 km/h 28.5 km/h 94% 83.82 mm WeatherDisplay:10.37 W/m2 RA
11:04 -18.7 °C -19.2 °C 33731.3 hPa East 23.8 km/h 26.9 km/h 94% 83.82 mm WeatherDisplay:10.37 W/m2 RA
11:09 -18.7 °C -19.2 °C 33717.8 hPa ENE 12.2 km/h 26.9 km/h 94% 91.44 mm WeatherDisplay:10.37 W/m2 RA
11:14 -18.7 °C -19.2 °C 33717.8 hPa NE 15 km/h 29.8 km/h 94% 96.52 mm WeatherDisplay:10.37 W/m2 RA
11:19 -18.7 °C -19.2 °C 33717.8 hPa ESE 14 km/h 25.9 km/h 94% 104.14 mm WeatherDisplay:10.37 W/m2 RA
11:25 -18.7 °C -19.2 °C 33717.8 hPa ESE 25.1 km/h 38.8 km/h 94% 91.44 mm WeatherDisplay:10.37 W/m2 RA
11:30 -18.7 °C -19.2 °C 33717.8 hPa SE 18.2 km/h 32.8 km/h 94% 91.44 mm WeatherDisplay:10.37 W/m2 RA
11:36 -18.7 °C -19.1 °C 33717.8 hPa East 15.6 km/h 28.5 km/h 94% 91.44 mm WeatherDisplay:10.37 W/m2 RA
11:41 -18.7 °C -19.2 °C 33717.8 hPa SE 17.9 km/h 46.7 km/h 94% 91.44 mm WeatherDisplay:10.37 W/m2 RA
11:46 -18.7 °C -19.2 °C 33717.8 hPa ESE 24.1 km/h 44.7 km/h 94% 91.44 mm WeatherDisplay:10.37 W/m2 RA
11:51 -18.7 °C -19.2 °C 33707.6 hPa NE 15.8 km/h 29.8 km/h 94% 91.44 mm WeatherDisplay:10.37 W/m2 RA
11:56 -18.7 °C -19.2 °C 33707.6 hPa NNE 23 km/h 35.7 km/h 94% 83.82 mm WeatherDisplay:10.37 W/m2 RA
12:01 -18.7 °C -19.2 °C 33707.6 hPa ENE 11.6 km/h 26.9 km/h 94% 91.44 mm WeatherDisplay:10.37 W/m2 RA
12:06 -18.7 °C -19.2 °C 33707.6 hPa SE 12.2 km/h 35.7 km/h 94% 83.82 mm WeatherDisplay:10.37 W/m2 RA
12:11 -18.7 °C -19.2 °C 33694.1 hPa East 13.2 km/h 29.8 km/h 94% 83.82 mm WeatherDisplay:10.37 W/m2 RA
12:16 -18.7 °C -19.2 °C 33707.6 hPa NE 17.4 km/h 28.5 km/h 94% 83.82 mm WeatherDisplay:10.37 W/m2 RA
12:21 -18.7 °C -19.2 °C 33707.6 hPa East 24.6 km/h 33.6 km/h 94% 83.82 mm WeatherDisplay:10.37 W/m2 RA
12:26 -18.7 °C -19.2 °C 33694.1 hPa ESE 17.1 km/h 47.6 km/h 94% 83.82 mm WeatherDisplay:10.37 W/m2 RA
12:32 -18.7 °C -19.2 °C 33707.6 hPa SE 19.5 km/h 32.8 km/h 94% 83.82 mm WeatherDisplay:10.37 W/m2 RA
12:37 -18.7 °C -19.2 °C 33707.6 hPa South 6.3 km/h 26.9 km/h 94% 83.82 mm WeatherDisplay:10.37 W/m2 RA
12:42 -18.7 °C -19.1 °C 33694.1 hPa NNE 12.9 km/h 28.5 km/h 94% 83.82 mm WeatherDisplay:10.37 W/m2 RA
12:47 -18.7 °C -19.1 °C 33694.1 hPa ENE 7.6 km/h 29.8 km/h 94% 83.82 mm WeatherDisplay:10.37 W/m2 RA
12:52 -18.7 °C -19.1 °C 33694.1 hPa SE 14 km/h 29.8 km/h 94% 83.82 mm WeatherDisplay:10.37 W/m2 RA
12:57 -18.7 °C -19.1 °C 33694.1 hPa SE 16.1 km/h 23.8 km/h 94% 83.82 mm WeatherDisplay:10.37 W/m2 RA
13:02 -18.7 °C -19.1 °C 33707.6 hPa ENE 16.1 km/h 29.8 km/h 94% 83.82 mm WeatherDisplay:10.37 W/m2 RA
13:07 -18.7 °C -19.1 °C 33707.6 hPa East 12.7 km/h 29.8 km/h 94% 83.82 mm WeatherDisplay:10.37 W/m2 RA
13:12 -18.7 °C -19.1 °C 33694.1 hPa East 15.6 km/h 23.8 km/h 94% 83.82 mm WeatherDisplay:10.37 W/m2 RA
13:17 -18.6 °C -19.1 °C 33694.1 hPa ESE 18.7 km/h 25.9 km/h 94% 83.82 mm WeatherDisplay:10.37 W/m2 RA
13:22 -18.6 °C -19.1 °C 33694.1 hPa ENE 14.5 km/h 23.8 km/h 94% 83.82 mm WeatherDisplay:10.37 W/m2 RA
13:27 -18.6 °C -19.1 °C 33694.1 hPa ESE 15 km/h 32.8 km/h 94% 76.2 mm WeatherDisplay:10.37 W/m2 RA
13:33 -18.6 °C -19.1 °C 33694.1 hPa ESE 14 km/h 29.8 km/h 94% 71.12 mm WeatherDisplay:10.37 W/m2 RA
13:38 -18.6 °C -19.1 °C 33694.1 hPa SE 19.6 km/h 26.9 km/h 94% 71.12 mm WeatherDisplay:10.37 W/m2 RA
13:43 -18.6 °C -19.1 °C 33694.1 hPa East 19.5 km/h 29.8 km/h 94% 63.5 mm WeatherDisplay:10.37 W/m2 RA
13:48 -18.6 °C -19.1 °C 33694.1 hPa ESE 14.2 km/h 31.1 km/h 94% 63.5 mm WeatherDisplay:10.37 W/m2 RA
13:54 -18.6 °C -19.1 °C 33694.1 hPa ESE 12.2 km/h 26.9 km/h 94% 71.12 mm WeatherDisplay:10.37 W/m2 RA
13:59 -18.6 °C -19.1 °C 33694.1 hPa East 18.8 km/h 29.8 km/h 94% 83.82 mm WeatherDisplay:10.37 W/m2 RA
14:04 -18.6 °C -19 °C 33694.1 hPa East 14.2 km/h 32.8 km/h 94% 83.82 mm WeatherDisplay:10.37 W/m2 RA
14:09 -18.6 °C -19 °C 33694.1 hPa ENE 5.6 km/h 18.2 km/h 94% 83.82 mm WeatherDisplay:10.37 W/m2 RA
14:14 -18.5 °C -19 °C 33694.1 hPa SE 7.2 km/h 20.9 km/h 94% 83.82 mm WeatherDisplay:10.37 W/m2 RA
14:19 -18.5 °C -19 °C 33694.1 hPa East 8.5 km/h 23.8 km/h 94% 83.82 mm WeatherDisplay:10.37 W/m2 RA
14:24 -18.5 °C -19 °C 33694.1 hPa East 14 km/h 29.8 km/h 94% 91.44 mm WeatherDisplay:10.37 W/m2 RA
14:29 -18.5 °C -18.9 °C 33694.1 hPa ESE 13.7 km/h 20.9 km/h 94% 91.44 mm WeatherDisplay:10.37 W/m2 RA
14:34 -18.5 °C -18.9 °C 33694.1 hPa ESE 16.3 km/h 26.9 km/h 94% 96.52 mm WeatherDisplay:10.37 W/m2 RA
14:39 -18.5 °C -18.9 °C 33694.1 hPa ESE 17.5 km/h 29.8 km/h 94% 104.14 mm WeatherDisplay:10.37 W/m2 RA
14:44 -18.5 °C -18.9 °C 33694.1 hPa ESE 17.5 km/h 29.8 km/h 94% 109.22 mm WeatherDisplay:10.37 W/m2 RA
14:49 -18.5 °C -18.9 °C 33694.1 hPa ENE 0.3 km/h 10.3 km/h 94% 109.22 mm WeatherDisplay:10.37 W/m2 RA
14:54 -18.4 °C -18.9 °C 33694.1 hPa SSE 9.3 km/h 29.8 km/h 94% 109.22 mm WeatherDisplay:10.37 W/m2 RA
14:59 -18.4 °C -18.9 °C 33694.1 hPa ESE 5 km/h 20.9 km/h 94% 104.14 mm WeatherDisplay:10.37 W/m2 RA
15:04 -18.4 °C -18.9 °C 33683.9 hPa East 7.2 km/h 20.9 km/h 94% 104.14 mm WeatherDisplay:10.37 W/m2 RA
15:09 -18.4 °C -18.9 °C 33694.1 hPa SSW 14.8 km/h 29.8 km/h 94% 104.14 mm WeatherDisplay:10.37 W/m2 RA
15:14 -18.4 °C -18.9 °C 33694.1 hPa South 7.6 km/h 26.9 km/h 94% 96.52 mm WeatherDisplay:10.37 W/m2 RA
15:19 -18.4 °C -18.9 °C 33694.1 hPa East 11.1 km/h 20.9 km/h 94% 104.14 mm WeatherDisplay:10.37 W/m2 RA
15:24 -18.4 °C -18.9 °C 33694.1 hPa SE 7.7 km/h 15 km/h 94% 104.14 mm WeatherDisplay:10.37 W/m2 RA
15:29 -18.4 °C -18.8 °C 33694.1 hPa ESE 6 km/h 15 km/h 94% 109.22 mm WeatherDisplay:10.37 W/m2 RA
15:34 -18.4 °C -18.8 °C 33694.1 hPa ENE 5.5 km/h 17.9 km/h 94% 109.22 mm WeatherDisplay:10.37 W/m2 RA
15:39 -18.4 °C -18.8 °C 33694.1 hPa ENE 14 km/h 29.8 km/h 94% 109.22 mm WeatherDisplay:10.37 W/m2 RA
15:44 -18.3 °C -18.8 °C 33694.1 hPa ESE 4.3 km/h 15.6 km/h 94% 109.22 mm WeatherDisplay:10.37 W/m2 RA
15:49 -18.3 °C -18.8 °C 33694.1 hPa ENE 9.7 km/h 15 km/h 94% 109.22 mm WeatherDisplay:10.37 W/m2 RA
15:54 -18.3 °C -18.8 °C 33694.1 hPa ESE 9 km/h 15 km/h 94% 109.22 mm WeatherDisplay:10.37 W/m2 RA
15:59 -18.3 °C -18.8 °C 33694.1 hPa East 10.9 km/h 23.3 km/h 94% 104.14 mm WeatherDisplay:10.37 W/m2 RA
16:04 -18.3 °C -18.8 °C 33694.1 hPa ENE 0.5 km/h 9 km/h 94% 96.52 mm WeatherDisplay:10.37 W/m2 RA
16:09 -18.3 °C -18.8 °C 33707.6 hPa SE 9 km/h 20.9 km/h 94% 96.52 mm WeatherDisplay:10.37 W/m2 RA
16:14 -18.3 °C -18.8 °C 33707.6 hPa SSE 9.7 km/h 17.9 km/h 94% 96.52 mm WeatherDisplay:10.37 W/m2 RA
16:19 -18.3 °C -18.7 °C 33707.6 hPa East 5 km/h 17.9 km/h 94% 83.82 mm WeatherDisplay:10.37 W/m2 RA
16:24 -18.3 °C -18.7 °C 33707.6 hPa ESE 10.1 km/h 15 km/h 94% 83.82 mm WeatherDisplay:10.37 W/m2 RA
16:29 -18.2 °C -18.7 °C 33707.6 hPa ENE 8 km/h 17.9 km/h 94% 76.2 mm WeatherDisplay:10.37 W/m2 RA
16:34 -18.2 °C -18.7 °C 33707.6 hPa East 10.1 km/h 20.9 km/h 94% 71.12 mm WeatherDisplay:10.37 W/m2 RA
16:39 -18.2 °C -18.7 °C 33707.6 hPa ESE 12.4 km/h 18.2 km/h 94% 71.12 mm WeatherDisplay:10.37 W/m2 RA
16:44 -18.2 °C -18.7 °C 33707.6 hPa ESE 5.6 km/h 15.6 km/h 94% 58.42 mm WeatherDisplay:10.37 W/m2 RA
16:49 -18.2 °C -18.7 °C 33707.6 hPa ENE 1.8 km/h 9 km/h 94% 58.42 mm WeatherDisplay:10.37 W/m2 RA
16:54 -18.2 °C -18.7 °C 33707.6 hPa ENE 2.9 km/h 9 km/h 94% 50.8 mm WeatherDisplay:10.37 W/m2 RA
16:59 -18.2 °C -18.7 °C 33707.6 hPa ESE 6.8 km/h 15 km/h 94% 50.8 mm WeatherDisplay:10.37 W/m2 RA
17:04 -18.2 °C -18.7 °C 33707.6 hPa ESE 5.6 km/h 17.9 km/h 94% 45.72 mm WeatherDisplay:10.37 W/m2 RA
17:09 -18.2 °C -18.7 °C 33707.6 hPa SE 3.9 km/h 15 km/h 94% 38.1 mm WeatherDisplay:10.37 W/m2 RA
17:14 -18.2 °C -18.7 °C 33707.6 hPa Calm     94% 38.1 mm WeatherDisplay:10.37 W/m2 RA
17:19 -18.2 °C -18.7 °C 33717.8 hPa Calm     94% 38.1 mm WeatherDisplay:10.37 W/m2 RA
17:24 -18.2 °C -18.6 °C 33717.8 hPa ENE 2.1 km/h 9 km/h 94% 38.1 mm WeatherDisplay:10.37 W/m2 RA
17:29 -18.2 °C -18.6 °C 33717.8 hPa East 3.9 km/h 6 km/h 94% 38.1 mm WeatherDisplay:10.37 W/m2 RA
17:34 -18.2 °C -18.6 °C 33717.8 hPa East 4.2 km/h 9 km/h 94% 38.1 mm WeatherDisplay:10.37 W/m2 RA
17:39 -18.2 °C -18.6 °C 33717.8 hPa East 2.1 km/h 7.7 km/h 94% 33.02 mm WeatherDisplay:10.37 W/m2 RA
17:44 -18.1 °C -18.6 °C 33717.8 hPa ESE 1 km/h 6 km/h 94% 38.1 mm WeatherDisplay:10.37 W/m2 RA
17:49 -18.1 °C -18.6 °C 33717.8 hPa Calm   6 km/h 94% 33.02 mm WeatherDisplay:10.37 W/m2 RA
17:54 -18.1 °C -18.6 °C 33731.3 hPa Calm     94% 38.1 mm WeatherDisplay:10.37 W/m2 RA
17:59 -18.1 °C -18.6 °C 33731.3 hPa Calm     94% 33.02 mm WeatherDisplay:10.37 W/m2 RA
18:04 -18.1 °C -18.6 °C 33731.3 hPa ESE 5.1 km/h 9 km/h 94% 33.02 mm WeatherDisplay:10.37 W/m2 FEW
18:09 -18.1 °C -18.6 °C 33717.8 hPa ENE 6.4 km/h 9 km/h 94% 33.02 mm WeatherDisplay:10.37 W/m2 RA
18:14 -18.1 °C -18.6 °C 33731.3 hPa ENE 0.3 km/h 6 km/h 94% 33.02 mm WeatherDisplay:10.37 W/m2 RA
18:19 -18.1 °C -18.5 °C 33731.3 hPa Calm     94% 33.02 mm WeatherDisplay:10.37 W/m2 RA
18:24 -18.1 °C -18.5 °C 33731.3 hPa Calm     94% 25.4 mm WeatherDisplay:10.37 W/m2 RA
18:29 -18.1 °C -18.5 °C 33731.3 hPa Calm     94% 25.4 mm WeatherDisplay:10.37 W/m2 FEW
18:34 -18.1 °C -18.5 °C 33731.3 hPa Calm     94% 20.32 mm WeatherDisplay:10.37 W/m2 FEW
18:39 -18 °C -18.5 °C 33731.3 hPa Calm     94% 25.4 mm WeatherDisplay:10.37 W/m2 RA
18:44 -18 °C -18.5 °C 33741.5 hPa Calm     94% 20.32 mm WeatherDisplay:10.37 W/m2 RA
18:49 -18 °C -18.5 °C 33741.5 hPa Calm     94% 20.32 mm WeatherDisplay:10.37 W/m2 FEW
18:54 -18 °C -18.5 °C 33741.5 hPa Calm     94% 20.32 mm WeatherDisplay:10.37 W/m2 RA
18:59 -18 °C -18.5 °C 33741.5 hPa Calm     94% 20.32 mm WeatherDisplay:10.37 W/m2 RA
19:04 -18 °C -18.4 °C 33741.5 hPa Calm     94% 20.32 mm WeatherDisplay:10.37 W/m2 FEW
19:09 -18 °C -18.4 °C 33741.5 hPa Calm     94% 12.7 mm WeatherDisplay:10.37 W/m2 FEW
19:14 -18 °C -18.4 °C 33741.5 hPa Calm     94% 12.7 mm WeatherDisplay:10.37 W/m2 FEW
19:19 -17.9 °C -18.4 °C 33751.6 hPa Calm     94% 12.7 mm WeatherDisplay:10.37 W/m2 FEW
19:24 -17.9 °C -18.4 °C 33741.5 hPa Calm     94% 12.7 mm WeatherDisplay:10.37 W/m2 FEW
19:29 -17.9 °C -18.4 °C 33751.6 hPa Calm     94% 12.7 mm WeatherDisplay:10.37 W/m2 FEW
19:34 -17.9 °C -18.4 °C 33751.6 hPa Calm     94% 12.7 mm WeatherDisplay:10.37 W/m2 FEW
19:39 -17.9 °C -18.4 °C 33751.6 hPa Calm     94% 12.7 mm WeatherDisplay:10.37 W/m2 RA
19:44 -17.9 °C -18.4 °C 33751.6 hPa ENE 1.6 km/h 6 km/h 94% 12.7 mm WeatherDisplay:10.37 W/m2 RA
19:49 -17.9 °C -18.4 °C 33751.6 hPa Calm     94% 12.7 mm WeatherDisplay:10.37 W/m2 FEW
19:54 -17.9 °C -18.4 °C 33751.6 hPa Calm     94% 7.62 mm WeatherDisplay:10.37 W/m2 FEW
19:59 -17.9 °C -18.4 °C 33751.6 hPa Calm     94% 7.62 mm WeatherDisplay:10.37 W/m2 FEW
20:04 -17.9 °C -18.4 °C 33765.2 hPa Calm     94% 7.62 mm WeatherDisplay:10.37 W/m2 FEW
20:09 -17.9 °C -18.4 °C 33765.2 hPa Calm   6 km/h 94% 12.7 mm WeatherDisplay:10.37 W/m2 RA
20:14 -17.9 °C -18.4 °C 33765.2 hPa Calm     94% 12.7 mm WeatherDisplay:10.37 W/m2 RA
20:19 -17.9 °C -18.4 °C 33765.2 hPa Calm     94% 12.7 mm WeatherDisplay:10.37 W/m2 FEW
20:24 -17.9 °C -18.4 °C 33765.2 hPa Calm     94% 12.7 mm WeatherDisplay:10.37 W/m2 FEW
20:29 -17.9 °C -18.4 °C 33775.4 hPa Calm     94% 12.7 mm WeatherDisplay:10.37 W/m2 FEW
20:34 -17.9 °C -18.4 °C 33765.2 hPa Calm     94% 12.7 mm WeatherDisplay:10.37 W/m2 FEW
20:39 -17.9 °C -18.4 °C 33775.4 hPa Calm     94% 7.62 mm WeatherDisplay:10.37 W/m2 FEW
20:44 -17.9 °C -18.4 °C 33775.4 hPa Calm     94% 7.62 mm WeatherDisplay:10.37 W/m2 FEW
20:49 -17.9 °C -18.4 °C 33775.4 hPa Calm     94% 7.62 mm WeatherDisplay:10.37 W/m2 FEW
20:54 -17.9 °C -18.4 °C 33788.9 hPa Calm     94% 7.62 mm WeatherDisplay:10.37 W/m2 FEW
20:59 -17.9 °C -18.4 °C 33788.9 hPa Calm     94% 7.62 mm WeatherDisplay:10.37 W/m2 FEW
21:04 -17.9 °C -18.4 °C 33788.9 hPa Calm     94% 7.62 mm WeatherDisplay:10.37 W/m2 FEW
21:09 -17.9 °C -18.3 °C 33788.9 hPa Calm   6 km/h 94% 0 mm WeatherDisplay:10.37 W/m2 FEW
21:14 -17.9 °C -18.3 °C 33788.9 hPa Calm     94% 0 mm WeatherDisplay:10.37 W/m2 FEW
21:19 -17.9 °C -18.3 °C 33788.9 hPa Calm     94% 0 mm WeatherDisplay:10.37 W/m2 FEW
21:24 -17.9 °C -18.3 °C 33788.9 hPa Calm     94% 0 mm WeatherDisplay:10.37 W/m2 FEW
21:29 -17.9 °C -18.3 °C 33788.9 hPa Calm     95% 0 mm WeatherDisplay:10.37 W/m2 FEW
21:34 -17.9 °C -18.3 °C 33788.9 hPa Calm     94% 0 mm WeatherDisplay:10.37 W/m2 FEW
21:39 -17.8 °C -18.3 °C 33799.1 hPa Calm     94% 0 mm WeatherDisplay:10.37 W/m2 FEW
21:44 -17.9 °C -18.3 °C 33799.1 hPa Calm     94% 0 mm WeatherDisplay:10.37 W/m2 FEW
21:49 -17.9 °C -18.3 °C 33788.9 hPa Calm     94% 0 mm WeatherDisplay:10.37 W/m2 FEW
21:54 -17.9 °C -18.3 °C 33799.1 hPa Calm     94% 0 mm WeatherDisplay:10.37 W/m2 FEW
21:59 -17.9 °C -18.3 °C 33799.1 hPa Calm     94% 0 mm WeatherDisplay:10.37 W/m2 FEW
22:04 -17.9 °C -18.3 °C 33799.1 hPa Calm     94% 0 mm WeatherDisplay:10.37 W/m2 FEW
22:09 -17.9 °C -18.3 °C 33799.1 hPa Calm     94% 0 mm WeatherDisplay:10.37 W/m2 FEW
22:14 -17.8 °C -18.3 °C 33799.1 hPa Calm     94% 0 mm WeatherDisplay:10.37 W/m2 FEW
22:19 -17.8 °C -18.3 °C 33799.1 hPa Calm     94% 0 mm WeatherDisplay:10.37 W/m2 FEW
22:24 -17.8 °C -18.3 °C 33799.1 hPa Calm     94% 0 mm WeatherDisplay:10.37 W/m2 FEW
22:29 -17.8 °C -18.3 °C 33809.2 hPa Calm     94% 0 mm WeatherDisplay:10.37 W/m2 FEW
22:34 -17.8 °C -18.3 °C 33809.2 hPa Calm     94% 0 mm WeatherDisplay:10.37 W/m2 FEW
22:39 -17.8 °C -18.3 °C 33809.2 hPa Calm     94% 0 mm WeatherDisplay:10.37 W/m2 FEW
22:44 -17.8 °C -18.3 °C 33809.2 hPa Calm     94% 0 mm WeatherDisplay:10.37 W/m2 FEW
22:49 -17.8 °C -18.3 °C 33809.2 hPa Calm     94% 0 mm WeatherDisplay:10.37 W/m2 FEW
22:54 -17.8 °C -18.3 °C 33822.8 hPa Calm     94% 0 mm WeatherDisplay:10.37 W/m2 FEW
22:59 -17.8 °C -18.2 °C 33822.8 hPa Calm     95% 0 mm WeatherDisplay:10.37 W/m2 FEW
23:04 -17.8 °C -18.2 °C 33822.8 hPa Calm     95% 0 mm WeatherDisplay:10.37 W/m2 FEW
23:09 -17.8 °C -18.2 °C 33809.2 hPa Calm     95% 0 mm WeatherDisplay:10.37 W/m2 FEW
23:14 -17.8 °C -18.2 °C 33822.8 hPa Calm     95% 0 mm WeatherDisplay:10.37 W/m2 FEW
23:19 -17.8 °C -18.2 °C 33822.8 hPa Calm     95% 0 mm WeatherDisplay:10.37 W/m2 FEW
23:24 -17.8 °C -18.2 °C 33822.8 hPa Calm     95% 0 mm WeatherDisplay:10.37 W/m2 FEW
23:29 -17.8 °C -18.2 °C 33822.8 hPa Calm   6 km/h 95% 0 mm WeatherDisplay:10.37 W/m2 FEW
23:34 -17.7 °C -18.2 °C 33822.8 hPa Calm     95% 0 mm WeatherDisplay:10.37 W/m2 FEW
23:39 -17.7 °C -18.2 °C 33822.8 hPa Calm     95% 0 mm WeatherDisplay:10.37 W/m2 FEW
23:44 -17.7 °C -18.2 °C 33822.8 hPa Calm   6 km/h 95% 0 mm WeatherDisplay:10.37 W/m2 FEW
23:49 -17.7 °C -18.2 °C 33822.8 hPa Calm     95% 0 mm WeatherDisplay:10.37 W/m2 FEW
23:54 -17.7 °C -18.2 °C 33822.8 hPa Calm     95% 0 mm WeatherDisplay:10.37 W/m2 FEW
23:59 -17.7 °C -18.2 °C 33822.8 hPa Calm     95% 0 mm WeatherDisplay:10.37 W/m2 FEW
Tuulensuunkaari, Veikkola, Suomi
Compliments of Weather Underground - 2.75 mb